Data No,UTC Date,UTC Time,Latitude,Longitude,Course(deg),Temp(degC)
677,2022/5/10,11:16,35-35.71N,139-47.14E,207,18.013
678,2022/5/10,11:17,35-35.51N,139-47.08E,187,18.416
679,2022/5/10,11:18,35-35.32N,139-47.12E,164,18.632
680,2022/5/10,11:19,35-35.14N,139-47.25E,146,18.657
681,2022/5/10,11:20,35-34.98N,139-47.40E,136,18.554
682,2022/5/10,11:21,35-34.84N,139-47.61E,131,18.615
683,2022/5/10,11:22,35-34.69N,139-47.81E,130,18.488
684,2022/5/10,11:23,35-34.56N,139-48.03E,126,18.348
685,2022/5/10,11:24,35-34.42N,139-48.25E,127,17.99
686,2022/5/10,11:25,35-34.28N,139-48.48E,127,17.893
687,2022/5/10,11:26,35-34.14N,139-48.71E,128,17.819
688,2022/5/10,11:27,35-33.99N,139-48.95E,127,17.678
689,2022/5/10,11:28,35-33.83N,139-49.20E,128,17.754
690,2022/5/10,11:29,35-33.66N,139-49.46E,128,17.898
691,2022/5/10,11:30,35-33.50N,139-49.72E,126,17.799
692,2022/5/10,11:31,35-33.32N,139-50.00E,126,18.116
693,2022/5/10,11:32,35-33.15N,139-50.28E,128,18.322
694,2022/5/10,11:33,35-32.93N,139-50.49E,150,18.436
695,2022/5/10,11:34,35-32.65N,139-50.59E,165,18.323
696,2022/5/10,11:35,35-32.39N,139-50.68E,166,18.178
697,2022/5/10,11:36,35-32.10N,139-50.75E,167,18.166
698,2022/5/10,11:37,35-31.81N,139-50.83E,167,18.113
699,2022/5/10,11:38,35-31.53N,139-50.91E,167,18.017
700,2022/5/10,11:39,35-31.23N,139-50.99E,168,17.898
701,2022/5/10,11:40,35-30.94N,139-51.06E,168,17.77
702,2022/5/10,11:41,35-30.64N,139-51.08E,183,17.698
703,2022/5/10,11:42,35-30.36N,139-51.01E,195,17.668
704,2022/5/10,11:43,35-30.08N,139-50.88E,204,17.665
705,2022/5/10,11:44,35-29.80N,139-50.70E,208,17.789
706,2022/5/10,11:45,35-29.55N,139-50.52E,210,17.717
707,2022/5/10,11:46,35-29.28N,139-50.33E,210,17.778
708,2022/5/10,11:47,35-29.05N,139-50.08E,228,17.785
709,2022/5/10,11:48,35-28.87N,139-49.79E,233,17.77
710,2022/5/10,11:49,35-28.68N,139-49.49E,231,17.655
711,2022/5/10,11:50,35-28.49N,139-49.21E,230,17.628
712,2022/5/10,11:51,35-28.29N,139-48.91E,230,17.556
713,2022/5/10,11:52,35-28.09N,139-48.61E,230,17.519
714,2022/5/10,11:53,35-27.90N,139-48.32E,230,17.489
715,2022/5/10,11:54,35-27.70N,139-48.02E,231,17.472
716,2022/5/10,11:55,35-27.51N,139-47.73E,231,17.472
717,2022/5/10,11:56,35-27.32N,139-47.42E,231,17.489
718,2022/5/10,11:57,35-27.13N,139-47.13E,231,17.506
719,2022/5/10,11:58,35-26.93N,139-46.83E,231,17.533
720,2022/5/10,11:59,35-26.74N,139-46.52E,232,17.515
721,2022/5/10,12:00,35-26.55N,139-46.23E,231,17.471
722,2022/5/10,12:01,35-26.35N,139-45.92E,231,17.477
723,2022/5/10,12:02,35-26.17N,139-45.62E,232,17.444
724,2022/5/10,12:03,35-25.97N,139-45.32E,231,17.426
725,2022/5/10,12:04,35-25.78N,139-45.02E,231,17.478
726,2022/5/10,12:05,35-25.59N,139-44.73E,232,17.563
727,2022/5/10,12:06,35-25.40N,139-44.42E,232,17.555
728,2022/5/10,12:07,35-25.21N,139-44.12E,232,17.606
729,2022/5/10,12:08,35-25.02N,139-43.82E,232,17.658
730,2022/5/10,12:09,35-24.83N,139-43.51E,232,17.696
731,2022/5/10,12:10,35-24.62N,139-43.26E,216,17.654
732,2022/5/10,12:11,35-24.35N,139-43.07E,208,17.587
733,2022/5/10,12:12,35-24.07N,139-42.90E,206,17.717
734,2022/5/10,12:13,35-23.81N,139-42.75E,205,17.865
735,2022/5/10,12:14,35-23.53N,139-42.58E,203,17.891
736,2022/5/10,12:15,35-23.26N,139-42.44E,203,17.929
737,2022/5/10,12:16,35-22.97N,139-42.32E,191,17.908
738,2022/5/10,12:17,35-22.67N,139-42.33E,175,17.949
739,2022/5/10,12:18,35-22.38N,139-42.37E,175,17.88
740,2022/5/10,12:19,35-22.07N,139-42.39E,175,17.827
741,2022/5/10,12:20,35-21.78N,139-42.42E,175,17.792
742,2022/5/10,12:21,35-21.46N,139-42.44E,176,17.792
743,2022/5/10,12:22,35-21.15N,139-42.47E,176,17.78
744,2022/5/10,12:23,35-20.86N,139-42.49E,176,17.749
745,2022/5/10,12:24,35-20.56N,139-42.51E,176,17.702
746,2022/5/10,12:25,35-20.32N,139-42.52E,176,17.684
747,2022/5/10,12:26,35-20.08N,139-42.54E,176,17.682
748,2022/5/10,12:27,35-19.87N,139-42.56E,169,17.668
749,2022/5/10,12:28,35-19.70N,139-42.69E,145,17.692
750,2022/5/10,12:29,35-19.53N,139-42.83E,145,17.596
751,2022/5/10,12:30,35-19.36N,139-42.98E,145,17.528
752,2022/5/10,12:31,35-19.18N,139-43.13E,145,17.508
753,2022/5/10,12:32,35-19.01N,139-43.27E,144,17.442
754,2022/5/10,12:33,35-18.84N,139-43.42E,145,17.444
755,2022/5/10,12:34,35-18.65N,139-43.58E,145,17.478
756,2022/5/10,12:35,35-18.48N,139-43.72E,145,17.468
757,2022/5/10,12:36,35-18.30N,139-43.87E,145,17.425
758,2022/5/10,12:37,35-18.13N,139-44.02E,145,17.394
759,2022/5/10,12:38,35-17.95N,139-44.17E,145,17.415
760,2022/5/10,12:39,35-17.77N,139-44.32E,145,17.378
761,2022/5/10,12:40,35-17.60N,139-44.47E,144,17.347
762,2022/5/10,12:41,35-17.42N,139-44.61E,144,17.339
763,2022/5/10,12:42,35-17.25N,139-44.76E,145,17.356
764,2022/5/10,12:43,35-17.07N,139-44.91E,145,17.413
765,2022/5/10,12:44,35-16.89N,139-45.07E,144,17.401
766,2022/5/10,12:45,35-16.73N,139-45.21E,145,17.401
767,2022/5/10,12:46,35-16.55N,139-45.35E,145,17.39
768,2022/5/10,12:47,35-16.38N,139-45.50E,144,17.445
769,2022/5/10,12:48,35-16.21N,139-45.65E,144,17.38
770,2022/5/10,12:49,35-16.04N,139-45.80E,144,17.317
771,2022/5/10,12:50,35-15.87N,139-45.94E,145,17.277
772,2022/5/10,12:51,35-15.69N,139-46.09E,145,17.248
773,2022/5/10,12:52,35-15.50N,139-46.21E,157,17.365
774,2022/5/10,12:53,35-15.29N,139-46.25E,176,17.486
775,2022/5/10,12:54,35-15.07N,139-46.26E,178,17.369
776,2022/5/10,12:55,35-14.86N,139-46.27E,178,17.442
777,2022/5/10,12:56,35-14.65N,139-46.28E,178,17.509
778,2022/5/10,12:57,35-14.44N,139-46.28E,179,17.517
779,2022/5/10,12:58,35-14.22N,139-46.29E,179,17.422
780,2022/5/10,12:59,35-14.00N,139-46.29E,179,17.315
781,2022/5/10,13:00,35-13.80N,139-46.29E,178,17.323
782,2022/5/10,13:01,35-13.58N,139-46.29E,179,17.342
783,2022/5/10,13:02,35-13.37N,139-46.30E,179,17.441
784,2022/5/10,13:03,35-13.17N,139-46.31E,177,17.493
785,2022/5/10,13:04,35-12.95N,139-46.29E,188,17.481
786,2022/5/10,13:05,35-12.74N,139-46.23E,193,17.487
787,2022/5/10,13:06,35-12.50N,139-46.16E,193,17.524
788,2022/5/10,13:07,35-12.23N,139-46.08E,193,17.509
789,2022/5/10,13:08,35-11.97N,139-46.01E,193,17.52
790,2022/5/10,13:09,35-11.69N,139-45.92E,193,17.519
791,2022/5/10,13:10,35-11.41N,139-45.84E,194,17.542
792,2022/5/10,13:11,35-11.13N,139-45.75E,194,17.54
793,2022/5/10,13:12,35-10.84N,139-45.66E,194,17.519
794,2022/5/10,13:13,35-10.57N,139-45.57E,195,17.53
795,2022/5/10,13:14,35-10.27N,139-45.46E,198,17.526
796,2022/5/10,13:15,35-10.00N,139-45.35E,198,17.522
797,2022/5/10,13:16,35-09.72N,139-45.23E,199,17.501
798,2022/5/10,13:17,35-09.43N,139-45.10E,199,17.498
799,2022/5/10,13:18,35-09.15N,139-44.99E,199,17.513
800,2022/5/10,13:19,35-08.86N,139-44.86E,199,17.524
801,2022/5/10,13:20,35-08.59N,139-44.75E,199,17.514
802,2022/5/10,13:21,35-08.31N,139-44.63E,198,17.508
803,2022/5/10,13:22,35-08.02N,139-44.51E,198,17.498
804,2022/5/10,13:23,35-07.74N,139-44.39E,199,17.521
805,2022/5/10,13:24,35-07.45N,139-44.27E,199,17.548
806,2022/5/10,13:25,35-07.17N,139-44.15E,199,17.59
807,2022/5/10,13:26,35-06.89N,139-44.03E,199,17.588
808,2022/5/10,13:27,35-06.60N,139-43.91E,198,17.612
809,2022/5/10,13:28,35-06.29N,139-43.78E,198,17.636
810,2022/5/10,13:29,35-06.00N,139-43.67E,198,17.683
811,2022/5/10,13:30,35-05.72N,139-43.55E,198,17.706
812,2022/5/10,13:31,35-05.48N,139-43.45E,198,17.777
813,2022/5/10,13:32,35-05.19N,139-43.33E,198,17.798
814,2022/5/10,13:33,35-04.91N,139-43.25E,191,17.866
815,2022/5/10,13:34,35-04.61N,139-43.20E,188,17.832
816,2022/5/10,13:35,35-04.32N,139-43.15E,186,17.804
817,2022/5/10,13:36,35-04.03N,139-43.10E,186,17.859
818,2022/5/10,13:37,35-03.72N,139-43.06E,186,17.82
819,2022/5/10,13:38,35-03.44N,139-43.02E,186,17.823
820,2022/5/10,13:39,35-03.13N,139-42.98E,186,17.838
821,2022/5/10,13:40,35-02.84N,139-42.94E,186,17.905
822,2022/5/10,13:41,35-02.54N,139-42.89E,186,17.926
823,2022/5/10,13:42,35-02.24N,139-42.86E,183,17.943
824,2022/5/10,13:43,35-01.95N,139-42.85E,180,17.989
825,2022/5/10,13:44,35-01.64N,139-42.84E,181,18.054
826,2022/5/10,13:45,35-01.35N,139-42.83E,181,18.054
827,2022/5/10,13:46,35-01.05N,139-42.83E,181,18.131
828,2022/5/10,13:47,35-00.75N,139-42.82E,181,18.17
829,2022/5/10,13:48,35-00.46N,139-42.82E,180,18.219
830,2022/5/10,13:49,35-00.14N,139-42.81E,181,18.222
831,2022/5/10,13:50,34-59.86N,139-42.80E,181,18.317
832,2022/5/10,13:51,34-59.55N,139-42.79E,181,18.53
833,2022/5/10,13:52,34-59.25N,139-42.78E,181,18.587
834,2022/5/10,13:53,34-58.95N,139-42.77E,181,18.404
835,2022/5/10,13:54,34-58.65N,139-42.76E,179,18.424
836,2022/5/10,13:55,34-58.36N,139-42.81E,169,18.478
837,2022/5/10,13:56,34-58.08N,139-42.91E,159,18.455
838,2022/5/10,13:57,34-57.81N,139-43.05E,158,18.506
839,2022/5/10,13:58,34-57.54N,139-43.19E,153,18.475
840,2022/5/10,13:59,34-57.28N,139-43.39E,144,18.439
841,2022/5/10,14:00,34-57.06N,139-43.59E,144,18.507
842,2022/5/10,14:01,34-56.81N,139-43.80E,145,18.585
843,2022/5/10,14:02,34-56.54N,139-44.03E,144,18.884
844,2022/5/10,14:03,34-56.31N,139-44.23E,144,18.391
845,2022/5/10,14:04,34-56.05N,139-44.45E,144,17.93
846,2022/5/10,14:05,34-55.83N,139-44.66E,142,17.952
847,2022/5/10,14:06,34-55.60N,139-44.87E,142,17.946
848,2022/5/10,14:07,34-55.36N,139-45.10E,143,17.808
849,2022/5/10,14:08,34-55.13N,139-45.30E,142,17.708
850,2022/5/10,14:09,34-54.89N,139-45.53E,141,17.668
851,2022/5/10,14:10,34-54.68N,139-45.74E,142,17.73
852,2022/5/10,14:11,34-54.43N,139-45.95E,144,17.799
853,2022/5/10,14:12,34-54.20N,139-46.17E,143,17.863
854,2022/5/10,14:13,34-53.96N,139-46.38E,143,18.022
855,2022/5/10,14:14,34-53.71N,139-46.61E,143,18.442
856,2022/5/10,14:15,34-53.47N,139-46.81E,144,18.638
857,2022/5/10,14:16,34-53.23N,139-47.03E,142,18.718
858,2022/5/10,14:17,34-52.98N,139-47.27E,143,18.747
859,2022/5/10,14:18,34-52.76N,139-47.48E,139,18.757
860,2022/5/10,14:19,34-52.52N,139-47.74E,139,18.759
861,2022/5/10,14:20,34-52.30N,139-47.96E,139,18.645
862,2022/5/10,14:21,34-52.09N,139-48.21E,132,18.914
863,2022/5/10,14:22,34-51.92N,139-48.50E,123,19.234
864,2022/5/10,14:23,34-51.77N,139-48.78E,124,19.39
865,2022/5/10,14:24,34-51.60N,139-49.07E,124,19.376
866,2022/5/10,14:25,34-51.45N,139-49.34E,125,19.341
867,2022/5/10,14:26,34-51.29N,139-49.62E,125,19.182
868,2022/5/10,14:27,34-51.12N,139-49.90E,125,19.41
869,2022/5/10,14:28,34-50.97N,139-50.17E,125,19.501
870,2022/5/10,14:29,34-50.80N,139-50.46E,123,19.314
871,2022/5/10,14:30,34-50.69N,139-50.73E,113,19.117
872,2022/5/10,14:31,34-50.61N,139-51.04E,102,18.973
873,2022/5/10,14:32,34-50.58N,139-51.37E,97,18.982
874,2022/5/10,14:33,34-50.54N,139-51.69E,98,19.074
875,2022/5/10,14:34,34-50.50N,139-52.02E,98,19.053
876,2022/5/10,14:35,34-50.46N,139-52.34E,99,19.355
877,2022/5/10,14:36,34-50.41N,139-52.66E,99,19.522
878,2022/5/10,14:37,34-50.37N,139-52.99E,99,19.613
879,2022/5/10,14:38,34-50.33N,139-53.31E,99,19.677
880,2022/5/10,14:39,34-50.29N,139-53.65E,98,19.741
881,2022/5/10,14:40,34-50.24N,139-53.99E,99,19.791
882,2022/5/10,14:41,34-50.20N,139-54.32E,99,19.844
883,2022/5/10,14:42,34-50.15N,139-54.66E,99,19.887
884,2022/5/10,14:43,34-50.13N,139-55.02E,90,19.913
885,2022/5/10,14:44,34-50.16N,139-55.33E,80,19.91
886,2022/5/10,14:45,34-50.24N,139-55.64E,70,19.871
887,2022/5/10,14:46,34-50.35N,139-55.93E,60,19.817
888,2022/5/10,14:47,34-50.49N,139-56.21E,59,19.818
889,2022/5/10,14:48,34-50.63N,139-56.50E,60,19.823
890,2022/5/10,14:49,34-50.76N,139-56.77E,59,19.822
891,2022/5/10,14:50,34-50.89N,139-57.05E,60,19.829
892,2022/5/10,14:51,34-51.02N,139-57.33E,60,19.818
893,2022/5/10,14:52,34-51.16N,139-57.62E,59,19.832
894,2022/5/10,14:53,34-51.30N,139-57.91E,60,19.844
895,2022/5/10,14:54,34-51.43N,139-58.18E,59,19.88
896,2022/5/10,14:55,34-51.57N,139-58.47E,59,19.905
897,2022/5/10,14:56,34-51.70N,139-58.74E,60,19.913
898,2022/5/10,14:57,34-51.83N,139-59.03E,60,19.913
899,2022/5/10,14:58,34-51.96N,139-59.31E,60,19.908
900,2022/5/10,14:59,34-52.09N,139-59.59E,61,19.911
901,2022/5/10,15:00,34-52.22N,139-59.87E,60,19.918
902,2022/5/10,15:01,34-52.35N,140-00.16E,61,19.919
903,2022/5/10,15:02,34-52.48N,140-00.44E,61,19.908
904,2022/5/10,15:03,34-52.61N,140-00.72E,61,19.864
905,2022/5/10,15:04,34-52.73N,140-01.01E,61,19.848
906,2022/5/10,15:05,34-52.86N,140-01.29E,61,19.847
907,2022/5/10,15:06,34-52.99N,140-01.57E,61,19.812
908,2022/5/10,15:07,34-53.11N,140-01.86E,62,19.724
909,2022/5/10,15:08,34-53.23N,140-02.14E,61,19.656
910,2022/5/10,15:09,34-53.35N,140-02.42E,62,19.563
911,2022/5/10,15:10,34-53.48N,140-02.71E,61,19.574
912,2022/5/10,15:11,34-53.60N,140-02.99E,62,19.577
913,2022/5/10,15:12,34-53.73N,140-03.27E,62,19.455
914,2022/5/10,15:13,34-53.85N,140-03.56E,61,19.01
915,2022/5/10,15:14,34-53.97N,140-03.84E,61,18.58
916,2022/5/10,15:15,34-54.10N,140-04.12E,62,18.271
917,2022/5/10,15:16,34-54.22N,140-04.41E,61,18.114
918,2022/5/10,15:17,34-54.35N,140-04.68E,60,18.041
919,2022/5/10,15:18,34-54.48N,140-04.95E,61,17.996
920,2022/5/10,15:19,34-54.60N,140-05.23E,61,18.008
921,2022/5/10,15:20,34-54.73N,140-05.51E,60,18.087
922,2022/5/10,15:21,34-54.86N,140-05.79E,60,18.183
923,2022/5/10,15:22,34-55.00N,140-06.08E,60,18.312
924,2022/5/10,15:23,34-55.12N,140-06.35E,60,18.373
925,2022/5/10,15:24,34-55.26N,140-06.64E,60,18.357
926,2022/5/10,15:25,34-55.39N,140-06.93E,60,18.304
927,2022/5/10,15:26,34-55.50N,140-07.19E,62,18.269
928,2022/5/10,15:27,34-55.63N,140-07.48E,62,18.243
929,2022/5/10,15:28,34-55.74N,140-07.75E,62,18.176
930,2022/5/10,15:29,34-55.86N,140-08.03E,62,18.184
931,2022/5/10,15:30,34-55.98N,140-08.31E,62,18.182
932,2022/5/10,15:31,34-56.10N,140-08.59E,63,18.152
933,2022/5/10,15:32,34-56.22N,140-08.87E,62,18.142
934,2022/5/10,15:33,34-56.34N,140-09.14E,62,18.112
935,2022/5/10,15:34,34-56.46N,140-09.43E,62,18.038
936,2022/5/10,15:35,34-56.58N,140-09.71E,62,17.937
937,2022/5/10,15:36,34-56.70N,140-09.98E,62,17.773
938,2022/5/10,15:37,34-56.82N,140-10.28E,62,17.647
939,2022/5/10,15:38,34-56.94N,140-10.54E,61,17.608
940,2022/5/10,15:39,34-57.06N,140-10.82E,61,17.584
941,2022/5/10,15:40,34-57.18N,140-11.10E,63,17.608
942,2022/5/10,15:41,34-57.30N,140-11.38E,62,17.634
943,2022/5/10,15:42,34-57.43N,140-11.67E,62,17.666
944,2022/5/10,15:43,34-57.55N,140-11.94E,61,17.678
945,2022/5/10,15:44,34-57.67N,140-12.22E,62,17.674
946,2022/5/10,15:45,34-57.78N,140-12.50E,63,17.675
947,2022/5/10,15:46,34-57.90N,140-12.77E,62,17.653
948,2022/5/10,15:47,34-58.02N,140-13.05E,60,17.628
949,2022/5/10,15:48,34-58.14N,140-13.30E,60,17.624
950,2022/5/10,15:49,34-58.27N,140-13.57E,59,17.663
951,2022/5/10,15:50,34-58.40N,140-13.84E,60,17.678
952,2022/5/10,15:51,34-58.52N,140-14.10E,60,17.743
953,2022/5/10,15:52,34-58.65N,140-14.38E,59,17.793
954,2022/5/10,15:53,34-58.78N,140-14.64E,59,17.817
955,2022/5/10,15:54,34-58.91N,140-14.92E,60,17.826
956,2022/5/10,15:55,34-59.04N,140-15.19E,59,17.828
957,2022/5/10,15:56,34-59.17N,140-15.45E,57,17.848
958,2022/5/10,15:57,34-59.31N,140-15.72E,57,17.881
959,2022/5/10,15:58,34-59.44N,140-15.98E,58,17.886
960,2022/5/10,15:59,34-59.58N,140-16.25E,57,17.868
961,2022/5/10,16:00,34-59.72N,140-16.51E,57,17.872
962,2022/5/10,16:01,34-59.85N,140-16.77E,57,17.883
963,2022/5/10,16:02,35-00.00N,140-17.04E,57,17.872
964,2022/5/10,16:03,35-00.14N,140-17.30E,57,17.863
965,2022/5/10,16:04,35-00.28N,140-17.57E,57,17.844
966,2022/5/10,16:05,35-00.42N,140-17.84E,56,17.842
967,2022/5/10,16:06,35-00.56N,140-18.11E,56,17.844
968,2022/5/10,16:07,35-00.71N,140-18.39E,57,17.862
969,2022/5/10,16:08,35-00.85N,140-18.65E,57,17.886
970,2022/5/10,16:09,35-01.00N,140-18.93E,57,17.906
971,2022/5/10,16:10,35-01.14N,140-19.20E,57,17.943
972,2022/5/10,16:11,35-01.28N,140-19.48E,57,17.952
973,2022/5/10,16:12,35-01.42N,140-19.73E,56,17.941
974,2022/5/10,16:13,35-01.56N,140-19.99E,57,17.952
975,2022/5/10,16:14,35-01.71N,140-20.27E,56,17.951
976,2022/5/10,16:15,35-01.85N,140-20.54E,56,17.928
977,2022/5/10,16:16,35-02.00N,140-20.81E,56,17.918
978,2022/5/10,16:17,35-02.14N,140-21.09E,57,17.937
979,2022/5/10,16:18,35-02.29N,140-21.36E,56,17.951
980,2022/5/10,16:19,35-02.44N,140-21.63E,56,17.959
981,2022/5/10,16:20,35-02.60N,140-21.91E,56,17.943
982,2022/5/10,16:21,35-02.75N,140-22.18E,56,17.954
983,2022/5/10,16:22,35-02.93N,140-22.51E,56,17.986
984,2022/5/10,16:23,35-03.07N,140-22.77E,56,18.026
985,2022/5/10,16:24,35-03.20N,140-23.01E,56,18.041
986,2022/5/10,16:25,35-03.36N,140-23.30E,56,18.09
987,2022/5/10,16:26,35-03.51N,140-23.57E,55,18.127
988,2022/5/10,16:27,35-03.67N,140-23.85E,56,18.145
989,2022/5/10,16:28,35-03.82N,140-24.13E,56,18.18
990,2022/5/10,16:29,35-03.98N,140-24.41E,56,18.227
991,2022/5/10,16:30,35-04.15N,140-24.73E,56,18.286
992,2022/5/10,16:31,35-04.31N,140-25.03E,56,18.363
993,2022/5/10,16:32,35-04.46N,140-25.31E,55,18.41
994,2022/5/10,16:33,35-04.62N,140-25.59E,55,18.429
995,2022/5/10,16:34,35-04.78N,140-25.88E,56,18.457
996,2022/5/10,16:35,35-04.93N,140-26.17E,56,18.498
997,2022/5/10,16:36,35-05.09N,140-26.46E,56,18.553
998,2022/5/10,16:37,35-05.25N,140-26.74E,56,18.6
999,2022/5/10,16:38,35-05.40N,140-27.02E,55,18.664
1000,2022/5/10,16:39,35-05.57N,140-27.31E,54,18.708
1001,2022/5/10,16:40,35-05.75N,140-27.58E,51,18.743
1002,2022/5/10,16:41,35-05.93N,140-27.84E,50,18.768
1003,2022/5/10,16:42,35-06.11N,140-28.11E,49,18.766
1004,2022/5/10,16:43,35-06.29N,140-28.37E,49,18.784
1005,2022/5/10,16:44,35-06.49N,140-28.65E,49,18.786
1006,2022/5/10,16:45,35-06.67N,140-28.91E,49,18.789
1007,2022/5/10,16:46,35-06.85N,140-29.13E,46,18.795
1008,2022/5/10,16:47,35-07.06N,140-29.39E,46,18.703
1009,2022/5/10,16:48,35-07.28N,140-29.66E,43,18.72
1010,2022/5/10,16:49,35-07.48N,140-29.88E,40,18.712
1011,2022/5/10,16:50,35-07.69N,140-30.08E,38,18.695
1012,2022/5/10,16:51,35-07.90N,140-30.30E,39,18.697
1013,2022/5/10,16:52,35-08.13N,140-30.53E,40,18.683
1014,2022/5/10,16:53,35-08.34N,140-30.75E,40,18.621
1015,2022/5/10,16:54,35-08.57N,140-30.98E,40,18.568
1016,2022/5/10,16:55,35-08.79N,140-31.21E,39,18.589
1017,2022/5/10,16:56,35-09.01N,140-31.43E,39,18.624
1018,2022/5/10,16:57,35-09.24N,140-31.67E,39,18.631
1019,2022/5/10,16:58,35-09.46N,140-31.89E,39,18.728
1020,2022/5/10,16:59,35-09.68N,140-32.12E,40,18.778
1021,2022/5/10,17:00,35-09.91N,140-32.36E,40,18.917
1022,2022/5/10,17:01,35-10.12N,140-32.57E,40,19.27
1023,2022/5/10,17:02,35-10.34N,140-32.80E,41,19.586
1024,2022/5/10,17:03,35-10.58N,140-33.05E,41,19.738
1025,2022/5/10,17:04,35-10.78N,140-33.27E,41,19.692
1026,2022/5/10,17:05,35-11.00N,140-33.51E,41,19.751
1027,2022/5/10,17:06,35-11.22N,140-33.75E,41,19.792
1028,2022/5/10,17:07,35-11.44N,140-33.99E,41,19.788
1029,2022/5/10,17:08,35-11.65N,140-34.22E,41,19.797
1030,2022/5/10,17:09,35-11.87N,140-34.46E,42,19.823
1031,2022/5/10,17:10,35-12.08N,140-34.70E,41,19.843
1032,2022/5/10,17:11,35-12.29N,140-34.93E,42,19.86
1033,2022/5/10,17:12,35-12.51N,140-35.16E,37,19.877
1034,2022/5/10,17:13,35-12.75N,140-35.37E,37,19.912
1035,2022/5/10,17:14,35-13.00N,140-35.59E,34,19.958
1036,2022/5/10,17:15,35-13.24N,140-35.78E,33,19.974
1037,2022/5/10,17:16,35-13.49N,140-35.98E,33,19.961
1038,2022/5/10,17:17,35-13.72N,140-36.18E,33,19.933
1039,2022/5/10,17:18,35-13.96N,140-36.38E,34,19.948
1040,2022/5/10,17:19,35-14.21N,140-36.57E,32,19.981
1041,2022/5/10,17:20,35-14.47N,140-36.77E,32,20.005
1042,2022/5/10,17:21,35-14.72N,140-36.96E,32,20.014
1043,2022/5/10,17:22,35-14.96N,140-37.15E,31,19.991
1044,2022/5/10,17:23,35-15.21N,140-37.34E,32,19.96
1045,2022/5/10,17:24,35-15.46N,140-37.54E,32,19.97
1046,2022/5/10,17:25,35-15.72N,140-37.74E,32,19.97
1047,2022/5/10,17:26,35-15.98N,140-37.93E,31,20.001
1048,2022/5/10,17:27,35-16.22N,140-38.12E,32,20.036
1049,2022/5/10,17:28,35-16.48N,140-38.32E,32,20.064
1050,2022/5/10,17:29,35-16.73N,140-38.52E,32,20.083
1051,2022/5/10,17:30,35-16.99N,140-38.72E,32,20.086
1052,2022/5/10,17:31,35-17.24N,140-38.92E,32,20.1
1053,2022/5/10,17:32,35-17.49N,140-39.11E,33,20.081
1054,2022/5/10,17:33,35-17.75N,140-39.32E,33,20.042
1055,2022/5/10,17:34,35-18.00N,140-39.51E,33,20.007
1056,2022/5/10,17:35,35-18.25N,140-39.72E,32,19.972
1057,2022/5/10,17:36,35-18.51N,140-39.92E,33,19.938
1058,2022/5/10,17:37,35-18.75N,140-40.11E,32,19.857
1059,2022/5/10,17:38,35-19.01N,140-40.31E,32,19.927
1060,2022/5/10,17:39,35-19.25N,140-40.50E,32,19.997
1061,2022/5/10,17:40,35-19.50N,140-40.69E,32,20.033
1062,2022/5/10,17:41,35-19.76N,140-40.89E,32,20.078
1063,2022/5/10,17:42,35-20.00N,140-41.08E,32,20.135
1064,2022/5/10,17:43,35-20.25N,140-41.28E,32,20.19
1065,2022/5/10,17:44,35-20.49N,140-41.47E,32,20.249
1066,2022/5/10,17:45,35-20.75N,140-41.66E,32,20.29
1067,2022/5/10,17:46,35-21.00N,140-41.85E,32,20.335
1068,2022/5/10,17:47,35-21.25N,140-42.05E,32,20.374
1069,2022/5/10,17:48,35-21.51N,140-42.26E,32,20.419
1070,2022/5/10,17:49,35-21.76N,140-42.45E,32,20.445
1071,2022/5/10,17:50,35-22.02N,140-42.66E,32,20.473
1072,2022/5/10,17:51,35-22.27N,140-42.86E,33,20.503
1073,2022/5/10,17:52,35-22.52N,140-43.05E,33,20.514
1074,2022/5/10,17:53,35-22.78N,140-43.26E,33,20.522
1075,2022/5/10,17:54,35-23.03N,140-43.46E,33,20.527
1076,2022/5/10,17:55,35-23.28N,140-43.66E,34,20.481
1077,2022/5/10,17:56,35-23.54N,140-43.87E,34,20.435
1078,2022/5/10,17:57,35-23.78N,140-44.07E,33,20.394
1079,2022/5/10,17:58,35-24.03N,140-44.28E,33,20.353
1080,2022/5/10,17:59,35-24.28N,140-44.48E,34,20.237
1081,2022/5/10,18:00,35-24.53N,140-44.69E,33,20.16
1082,2022/5/10,18:01,35-24.78N,140-44.89E,34,20.132
1083,2022/5/10,18:02,35-25.03N,140-45.10E,34,20.008
1084,2022/5/10,18:03,35-25.29N,140-45.31E,34,19.777
1085,2022/5/10,18:04,35-25.53N,140-45.52E,34,19.486
1086,2022/5/10,18:05,35-25.78N,140-45.72E,34,19.054
1087,2022/5/10,18:06,35-26.03N,140-45.92E,34,18.821
1088,2022/5/10,18:07,35-26.28N,140-46.13E,35,18.389
1089,2022/5/10,18:08,35-26.52N,140-46.34E,34,18.248
1090,2022/5/10,18:09,35-26.77N,140-46.54E,32,17.873
1091,2022/5/10,18:10,35-27.02N,140-46.73E,32,17.4
1092,2022/5/10,18:11,35-27.26N,140-46.92E,32,17.018
1093,2022/5/10,18:12,35-27.51N,140-47.11E,31,17.027
1094,2022/5/10,18:13,35-27.76N,140-47.30E,32,16.902
1095,2022/5/10,18:14,35-28.02N,140-47.50E,32,16.713
1096,2022/5/10,18:15,35-28.26N,140-47.68E,32,16.678
1097,2022/5/10,18:16,35-28.50N,140-47.87E,32,16.67
1098,2022/5/10,18:17,35-28.74N,140-48.05E,32,16.865
1099,2022/5/10,18:18,35-28.99N,140-48.24E,32,16.884
1100,2022/5/10,18:19,35-29.23N,140-48.43E,31,16.935
1101,2022/5/10,18:20,35-29.47N,140-48.60E,31,17.042
1102,2022/5/10,18:21,35-29.71N,140-48.78E,31,17.197
1103,2022/5/10,18:22,35-29.94N,140-48.96E,31,17.32
1104,2022/5/10,18:23,35-30.18N,140-49.14E,31,17.376
1105,2022/5/10,18:24,35-30.43N,140-49.32E,31,17.426
1106,2022/5/10,18:25,35-30.66N,140-49.50E,31,17.434
1107,2022/5/10,18:26,35-30.90N,140-49.68E,31,17.56
1108,2022/5/10,18:27,35-31.14N,140-49.86E,32,17.662
1109,2022/5/10,18:28,35-31.38N,140-50.05E,32,17.677
1110,2022/5/10,18:29,35-31.62N,140-50.22E,31,17.632
1111,2022/5/10,18:30,35-31.86N,140-50.41E,32,17.636
1112,2022/5/10,18:31,35-32.09N,140-50.59E,31,17.601
1113,2022/5/10,18:32,35-32.33N,140-50.76E,32,17.581
1114,2022/5/10,18:33,35-32.57N,140-50.95E,31,17.578
1115,2022/5/10,18:34,35-32.81N,140-51.13E,32,17.392
1116,2022/5/10,18:35,35-33.05N,140-51.31E,32,17.205
1117,2022/5/10,18:36,35-33.27N,140-51.49E,32,17.118
1118,2022/5/10,18:37,35-33.51N,140-51.67E,32,17.069
1119,2022/5/10,18:38,35-33.75N,140-51.86E,32,17.029
1120,2022/5/10,18:39,35-33.98N,140-52.04E,32,16.996
1121,2022/5/10,18:40,35-34.23N,140-52.23E,32,16.992
1122,2022/5/10,18:41,35-34.45N,140-52.40E,32,17.012
1123,2022/5/10,18:42,35-34.69N,140-52.59E,32,17.024
1124,2022/5/10,18:43,35-34.93N,140-52.78E,32,17.046
1125,2022/5/10,18:44,35-35.17N,140-52.96E,32,17.051
1126,2022/5/10,18:45,35-35.41N,140-53.15E,32,17.027
1127,2022/5/10,18:46,35-35.64N,140-53.33E,33,16.933
1128,2022/5/10,18:47,35-35.88N,140-53.52E,33,16.892
1129,2022/5/10,18:48,35-36.12N,140-53.71E,32,16.827
1130,2022/5/10,18:49,35-36.35N,140-53.89E,32,16.839